    Orbital elements:
    2018 WX1                                                 Earth MOID = 0.0124 AU
    Epoch 2019 Apr. 27.0 TT = JDT 2458600.5                 MPC
    M  65.82951              (2000.0)            P               Q
    n   0.83054550     Peri.  265.67047     -0.90505520     -0.40315073
    a   1.1208834      Node   250.50800     +0.42438192     -0.83524517
    e   0.2798993      Incl.    8.26065     +0.02784020     -0.37394517
    P   1.19           H   24.1           G   0.15           U   7
    Residuals in seconds of arc
    181128 G96  0.0   0.2-    181128 113  0.9+  0.6-    181128 L01  0.1-  0.5-
    181128 G96  0.1+  0.0     181128 113  0.9-  1.1+    181129 C95  0.4+  0.1+
    181128 G96  0.1+  0.0     181128 C77  0.0   0.1+    181129 C95  0.4+  0.4+
    181128 G96  0.3+  0.3-    181128 C77  0.3-  0.0     181129 H36  0.1-  0.1-
    181128 H01  0.1-  0.1-    181128 K41  0.2-  0.4-    181129 H36  0.1+  0.3-
    181128 H01  0.0   0.0     181128 K41  0.1+  0.4-    181129 H36  0.1-  0.3-
    181128 H01  0.1-  0.0     181128 104  0.0   0.2-    181129 L04  0.1-  0.1-
    181128 H01  0.1-  0.0     181128 K41  0.1+  0.4+    181129 L04  0.1-  0.1-
    181128 I52  0.1-  0.0     181128 C77  0.4-  0.1+    181129 L04  0.1-  0.0
    181128 I52  1.0+  0.5-    181128 104  0.0   0.1-    181129 Z99  0.2+  0.1-
    181128 I52  0.4-  0.5+    181128 104  0.4+  0.4+    181129 Z99  0.2+  0.0
    181128 I52  0.7-  0.4-    181128 K38  0.1-  0.2+    181129 Z99  0.6+  0.1-
    181128 P93  0.0   0.4+    181128 K38  0.1-  0.3-    181129 Z80  0.6+  0.2+
    181128 P93  0.3+  0.1+    181128 K38  0.0   0.2-    181129 Z80  0.7-  0.1+
    181128 P93  0.1-  0.1-    181128 160  0.0   0.0     181129 Z80  0.3+  0.2-
    181128 P93  0.3-  0.2+    181128 160  0.0   0.5+    181130 K63  0.1-  0.2-
    181128 K61  0.6+  0.2-    181128 160  0.0   0.0     181130 K63  0.0   0.2-
    181128 K61  0.8-  0.9+    181128 160  0.6+  1.0+    181130 K63  0.3+  0.5-
    181128 K61  0.1-  0.1+    181128 160  0.4+  0.1-    181130 585  0.3-  0.1+
    181128 K61  1.0-  0.3-    181128 L01  0.1+  0.2-    181130 585  0.3-  0.2+
    181128 K61  0.1-  0.0     181128 L01  0.1-  0.3-    181130 585  0.3-  0.2+
    181128 K61  0.1-  0.1-    181128 L01  0.1-  0.3-    181130 585  0.2-  0.3+
    181128 113  0.8+  0.2-    181128 L01  0.1-  0.3+    181130 585  0.0   0.2+
    
    Ephemeris:
    2018 WX1                 a,e,i = 1.12, 0.28, 8                   q = 0.8071
    Date    TT    R. A. (2000) Decl.     Delta      r     Elong.  Phase     V
    2018 10 31    04 23 41.7 +43 53 36   0.2124  1.1637   140.0    33.2    22.5
    ...
    2018 11 15    04 32 43.3 +43 47 34   0.1214  1.0964   150.3    26.6    20.9
    ...
    2018 11 23    04 34 55.5 +41 16 49   0.07708 1.0590   157.1    21.2    19.7
    ...
    2018 11 29    04 36 01.4 +35 10 37   0.04555 1.0307   165.7    13.7    18.2
    2018 11 30    04 36 12.0 +33 11 22   0.04048 1.0259   168.0    11.5    17.9
    2018 12 01    04 36 23.4 +30 37 38   0.03550 1.0212   170.8     8.8    17.5
    ...
    2018 12 07    04 39 09.6 -29 53 53   0.01254 0.9929   127.5    52.0    16.5
    ...
    2018 12 15    16 32 04.8 -68 10 16   0.04129 0.9559    45.8   132.5    23.0
    ...
    2018 12 30    16 40 44.9 -54 51 49   0.1200  0.8920    38.1   137.2    25.7
    
    A. U. Tomatic                (C) Copyright 2018 MPC           M.P.E.C. 2018-W83
    

    Read MPEC 2018-W82 Read MPEC 2018-W84


    MPEC number:

    Enter an MPEC number in one of the following forms:

    • 1997-B01 (the full form)
    • J97B01 (the packed version of the full form)
    • B01 (the abbreviated form)